Regional Weather Roundup
Issued by NWS

Home | Current Version | Previous Version | Text Only | Print | Product List | Glossary On
Versions: 1 2 3 4 5 6 7 8 9 10 11 12 13 14 15 16 17 18 19 20 21 22 23 24 25 26 27 28 29 30 31 32 33 34 35 36 37 38 39 40 41 42 43 44 45 46 47 48 49 50
000
ASUS43 KMKX 261621
RWRWI

WISCONSIN REGIONAL WEATHER ROUNDUP
NATIONAL WEATHER SERVICE MILWAUKEE/SULLIVAN WI
1000 AM CST MON JAN 26 2015

NOTE: "FAIR" INDICATES FEW OR NO CLOUDS BELOW 12,000 FEET WITH NO
SIGNIFICANT WEATHER AND/OR OBSTRUCTIONS TO VISIBILITY.

WIZ001-002-006>008-014>016-023>028-261700-
NORTHWEST WISCONSIN

CITY           SKY/WX    TMP DP  RH WIND       PRES   REMARKS
SUPERIOR ARPT  LGT SNOW  24  23  96 SW3       29.68R
ASHLAND        CLOUDY    21  18  88 S6        29.70S WCI  13
HAYWARD        LGT SNOW  20  17  88 S8        29.68F VSB 1   WCI  10
SIREN          CLOUDY    26  25  98 SE3       29.68R FOG
CUMBERLAND     CLOUDY    23  21  93 S8        29.68F FOG     WCI  14
RICE LAKE      CLOUDY    22  21  93 SE8       29.71F FOG     WCI  13
CHETEK         CLOUDY    21  20  96 SE6       29.71F FOG     WCI  14
LADYSMITH      CLOUDY    20  18  93 S6        29.74R FOG     WCI  12
EAU CLAIRE     CLOUDY    22  19  89 SE7       29.73S FOG     WCI  13
MENOMONIE      CLOUDY    25  23  93 E6        29.72S FOG     WCI  18
NEW RICHMOND   CLOUDY    30  29  96 SW7       29.68F WCI  23
OSCEOLA        FLURRIES  31  30  99 SW5       29.71F WCI  26
$$

WIZ003>005-009-010-017-018-261700-
NORTH CENTRAL WISCONSIN

CITY           SKY/WX    TMP DP  RH WIND       PRES   REMARKS
MANITOWISH WTR LGT SNOW  15  12  88 S9        29.71S WCI   3
ARBOR VITAE    LGT SNOW  17  13  84 S8        29.72S VSB 1   WCI   6
WOODRUFF       LGT SNOW  17  13  84 S8        29.72S VSB 1   WCI   6
RHINELANDER    LGT SNOW  15  11  83 SE9       29.75R VSB 3/4 WCI   3
EAGLE RIVER    SNOW      15  10  82 S5        29.74R VSB 1/2 WCI   7
LAND O LAKES   LGT SNOW  16  12  86 S8        29.74S VSB 1   WCI   5
PHILLIPS       CLOUDY    17  14  89 S10       29.70S FOG     WCI   4
TOMAHAWK       FLURRIES  15  12  85 CALM      29.75R
MEDFORD        LGT SNOW  16  14  89 SE8       29.73R WCI   6
MERRILL        LGT SNOW  16  13  86 S7        29.76F WCI   6
$$

WIZ029-030-035-036-043>047-261700-
CENTRAL WISCONSIN

CITY           SKY/WX    TMP DP  RH WIND       PRES   REMARKS
WAUSAU         LGT SNOW  17  13  84 SE12      29.77S FOG     WCI   4
MOSINEE        LGT SNOW  16  16 100 S8        29.79F WCI   5
MARSHFIELD     LGT SNOW  18  15  88 S12       29.76S FOG     WCI   5
STEVENS POINT  MIX PCPN  16  12  86 SE7       29.82S WCI   6
WAUPACA        LGT SNOW  21  15  76 SE7       29.86S WCI  12
WAUTOMA        LGT SNOW  19  16  88 S6        29.87S VSB 1   WCI  11
WISC RAPIDS    LGT SNOW  18  13  80 SE8       29.82F WCI   8
CAMP DOUGLAS   LGT SNOW  21  21 100 S13       29.80F FOG     WCI   9
$$

WIZ011>013-019>022-031-037>040-048>050-261700-
NORTHEAST WISCONSIN

CITY           SKY/WX    TMP DP  RH WIND       PRES   REMARKS
ANTIGO         LGT SNOW  13  10  87 S12       29.78F WCI   0
SHAWANO        CLOUDY    21  14  73 S3        29.87S
OCONTO         CLOUDY    18  13  84 CALM      29.89F
STURGEON BAY   CLOUDY    23  16  74 S12       29.91F WCI  12
GREEN BAY      CLOUDY    21  15  78 S7        29.89F WCI  12
MANITOWOC      FAIR      26  20  77 S16       29.90F WCI  14
APPLETON       CLOUDY    19  12  73 S10       29.87F WCI   8
CLINTONVILLE   CLOUDY    19  12  73 S7        29.86S WCI  10
OSHKOSH        CLOUDY    21  14  74 S9        29.87F WCI  11
$$

WIZ032>034-041-042-053>061-261700-
SOUTHWEST WISCONSIN

CITY           SKY/WX    TMP DP  RH WIND       PRES   REMARKS
LA CROSSE      CLOUDY    24  19  81 S10       29.79F WCI  14
SPARTA         CLOUDY    22  18  84 S5        29.79F WCI  16
VIROQUA        CLOUDY    21  19  93 S13       29.77F WCI   8
BOSCOBEL       CLOUDY    23  17  78 S3        29.86F
PRAIRIE DU CHI CLOUDY    24  19  82 SE6       29.84F WCI  17
PLATTEVILLE    CLOUDY    19  17  90 SE9       29.87R WCI   9
$$

WIZ056-057-062-063-064-067-068-261700-
SOUTH CENTRAL WISCONSIN

CITY           SKY/WX    TMP DP  RH WIND       PRES   REMARKS
REEDSBURG      LGT SNOW  19  15  88 S7        29.85S WCI   9
BARABOO/DELLS  LGT SNOW  19  15  86 S6        29.85S WCI  11
LONE ROCK      LGT SNOW  21  16  81 SE5       29.87F WCI  15
MINERAL POINT  LGT SNOW  21  18  86 S9        29.84F WCI  11
MADISON        LGT SNOW  19  16  88 S7        29.88R VSB 1   WCI  10
MIDDLETON      CLOUDY    21  16  83 S9        29.87S WCI  10
WATERTOWN      CLOUDY    20  16  83 S6        29.89S WCI  12
MONROE         LGT SNOW  19  18  93 S12       29.86F WCI   7
JANESVILLE     LGT SNOW  19  16  86 SE12      29.90F WCI   7
$$

WIZ051-052-058>065-066-070>072-261700-
SOUTHEAST WISCONSIN

CITY           SKY/WX    TMP DP  RH WIND       PRES   REMARKS
MILWAUKEE      PTSUNNY   24  15  68 S8        29.93F WCI  15
WAUKESHA       MOSUNNY   18  12  79 S7        29.92F WCI   8
MILWAUKEE/TIMM CLOUDY    23  16  74 S6        29.93F WCI  16
RACINE         CLOUDY    24  15  68 SW6       29.95F WCI  17
BURLINGTON     CLOUDY    21  16  79 S7        29.92S WCI  13
KENOSHA        CLOUDY    24  17  74 S6        29.93F WCI  17
FOND DU LAC    CLOUDY    22  15  75 S13       29.88F WCI  10
SHEBOYGAN      CLOUDY    24  17  74 S9        29.90F WCI  14
WEST BEND      CLOUDY    23  18  80 S7        29.90F WCI  15
JUNEAU         CLOUDY    21  15  78 S10       29.89S WCI  10
$$

LSZ147-162-261700-
LAKE SUPERIOR

STATION/POSITION TIME  TEMP    WIND        PRES    WAVE
                       AIR SEA DIR/SP/G            HT/PER
                 (UTC) (F)     (DEG/KT/KT) (MB)    (FT/S)
DEVILS ISLAND    1600   22     170/  7/ 10 1007.3F
PORT WING        1500   22     160/  3/  9 1006.1R
SAXON HARBOR     1500   22     190/  4/ 10 1006.1S
$$

LMZ867-665-643>646-261700-
LAKE MICHIGAN

STATION/POSITION TIME  TEMP    WIND        PRES    WAVE
                       AIR SEA DIR/SP/G            HT/PER
                 (UTC) (F)     (DEG/KT/KT) (MB)    (FT/S)
NORTHPORT PIER   1516   21     210/  3/  6 1013.2F
SISTER BAY       1513   23        CALM       N/A
KEWAUNEE LAKESHO 1500   23     200/  9/ 12 1012.4F
SHEBOYGAN LAKESH 1600   24     190/  9/ 11 1014.1F
PORT WASHINGTON  1500   25     220/  5/  9 1014.6F
MILWAUKEE LAKESH 1600   24     190/  9/ 10   N/A
KENOSHA   LAKESH 1600   24     200/  3/  7 1013.9F
$$

TC  - TEMPERATURE IN CELSIUS
VSB - VISIBILITY IN STATUTE MILES
WCI - WIND CHILL INDEX
HX  - HEAT INDEX




USA.gov is the U.S. government's official web portal to all federal, state and local government web resources and services.